[[{"header":{"parameterUnit":"m.s-1","parameterCategory":1,"la1":30.2991,"la2":30.254,"lo1":-89.0895,"lo2":-89.0444,"dy":0.0017,"dx":0.0017,"nx":28,"ny":28,"refTime":"2024-09-29T21:00:00:Z","depth":0,"parameterNumber":2,"parameterNumberName":"U-component_of_WINDS"},"data":[0,0,0,0,0,0,0,0,0,0,0,0,0,0,0,0,0,0,0,0,0,0,0,0,0,0,0,0,0,0,0,0,0,0,0,0,0,0,0,0,0,0,0,0,0,0,0,0,0,0,0,0,0,0,0,0,0,0,0.8049,0.8049,0,0.8086,0.8087,0.8087,0.8115,0.8115,0.8115,0.8116,0.8156,0.8157,0.8157,0,0,0,0,0,0,0,0,0,0,0,0,0,0.8003,0.8004,0.8049,0.8049,0.805,0.8086,0.8087,0.8087,0.8115,0.8115,0.8115,0.8116,0.8155,0.8156,0.8157,0,0,0,0,0,0,0,0,0,0,0,0,0,0.803,0.8004,0.8049,0.8068,0.807,0.8086,0.8087,0.8087,0.8115,0.8115,0.8116,0.8116,0.8155,0.8156,0.8158,0.8158,0,0,0.8161,0.8162,0,0,0,0,0,0,0,0,0.8029,0.8032,0.8065,0.8067,0.8069,0.8096,0.8085,0.8111,0.8115,0.8098,0.8116,0.8116,0.8136,0.8139,0.8145,0.816,0.8162,0.8162,0.8162,0.8163,0.8163,0,0,0,0,0,0,0,0.8027,0.803,0.8064,0.8065,0.8068,0.8075,0.8079,0.809,0.8114,0.8099,0.8101,0.8105,0.8137,0.8144,0.8146,0.8162,0.8161,0.8163,0.8163,0.8164,0.8181,0.818,0,0,0,0,0,0,0.8022,0.8029,0.8063,0.8065,0.8049,0.8076,0.8081,0.8087,0.8114,0.8119,0.8105,0.8107,0.8141,0.8145,0.8148,0.8151,0.8163,0.8164,0.8165,0.8181,0.8181,0.818,0,0,0,0,0,0,0.802,0.8024,0.8061,0.8047,0.8053,0.8076,0.8083,0.8088,0.8094,0.8119,0.8123,0.8107,0.8142,0.8146,0.8155,0.8153,0.8165,0.8166,0.8181,0.8181,0.8181,0.8157,0,0,0,0,0,0,0.8019,0.8024,0.8024,0.8047,0.8053,0.8068,0.8083,0.8088,0.8096,0.8099,0.8122,0.8126,0.8142,0.8153,0.8157,0.8155,0.8167,0.8182,0.8181,0.8181,0.8158,0.8156,0.8154,0,0,0,0,0,0.8017,0.8016,0.8024,0.8028,0.8054,0.8067,0.8071,0.8089,0.8096,0.8096,0.8112,0.8125,0.8152,0.8154,0.8158,0.8156,0.8182,0.8181,0.8181,0.8159,0.8156,0.8154,0,0,0,0,0,0,0.7992,0.8019,0.8028,0.8034,0.8048,0.8072,0.8073,0.8085,0.8098,0.81,0.8122,0.8127,0.8135,0.8146,0.8148,0.8159,0.8169,0.8169,0.8151,0.8148,0.8146,0.8144,0.8168,0,0,0,0,0,0.7987,0.7995,0.8019,0.8022,0.8028,0.8049,0.8056,0.8069,0.8085,0.8091,0.8107,0.8122,0.8135,0.8142,0.8154,0.8159,0.8166,0.816,0.8158,0.8156,0.8156,0.8161,0.8159,0.8178,0.8178,0.8178,0,0,0.7977,0.7993,0.7997,0.8017,0.8029,0.8038,0.8054,0.8063,0.807,0.8092,0.8103,0.8115,0.8134,0.8141,0.8145,0.8151,0.8152,0.8155,0.8154,0.8155,0.816,0.8158,0.8157,0.8178,0.8178,0.8178,0,0,0.7963,0.7976,0.798,0.7992,0.801,0.8025,0.8025,0.8048,0.8057,0.8067,0.8084,0.8093,0.8113,0.8126,0.8135,0.8126,0.814,0.813,0.8119,0.8123,0.8122,0.812,0.8118,0.8117,0.813,0.813,0.813,0,0.7949,0.7962,0.7981,0.7988,0.7997,0.8017,0.8022,0.8033,0.8055,0.8061,0.8067,0.8092,0.8106,0.8118,0.8116,0.8122,0.8125,0.8128,0.812,0.8119,0.8118,0.8117,0.8116,0.8128,0.8129,0.8129,0.8129,0,0.7944,0.7953,0.7954,0.7975,0.7983,0.799,0.801,0.8016,0.8028,0.8042,0.8053,0.807,0.8087,0.809,0.8102,0.8103,0.8106,0.8116,0.8127,0.8115,0.8114,0.8113,0.8127,0.8127,0.8127,0.8128,0,0,0.7916,0.7946,0.7947,0.7956,0.7978,0.7986,0.7993,0.8009,0.8015,0.8029,0.8037,0.8053,0.8062,0.8072,0.8086,0.8089,0.8083,0.8098,0.8099,0.8096,0.8087,0.808,0.8079,0.8091,0.8091,0.8091,0.8085,0,0.7907,0.7921,0.7938,0.7946,0.7956,0.7975,0.7981,0.7996,0.8009,0.8019,0.8034,0.8045,0.8056,0.8062,0.8066,0.8082,0.8081,0.8083,0.8099,0.81,0.8095,0.8078,0.8071,0.8065,0.8085,0.8085,0.8085,0,0.7898,0.7911,0.7921,0.7942,0.7947,0.7952,0.7968,0.7978,0.7995,0.8004,0.8015,0.8029,0.8039,0.8048,0.8062,0.8063,0.807,0.8079,0.808,0.8083,0.8092,0.8082,0.8064,0.8063,0.8084,0.8084,0.8084,0,0.7879,0.7898,0.7907,0.7914,0.7939,0.7943,0.7954,0.7971,0.7979,0.7994,0.8,0.8015,0.8023,0.8035,0.8053,0.8058,0.8066,0.8076,0.8075,0.8074,0.8076,0.8076,0.806,0.8079,0.8079,0.8079,0.8079,0,0.7867,0.7872,0.7898,0.7904,0.791,0.793,0.7936,0.7948,0.7964,0.7972,0.7989,0.7997,0.802,0.8031,0.8046,0.8056,0.8059,0.8068,0.8072,0.8067,0.8066,0.8073,0.8074,0.8079,0.8079,0.8079,0.8079,0,0.7847,0.7864,0.7875,0.7897,0.7903,0.7907,0.7927,0.7933,0.7947,0.7958,0.7961,0.7983,0.7997,0.8016,0.8035,0.8045,0.8054,0.8059,0.8048,0.805,0.8048,0.8049,0.8037,0.8037,0.8055,0.8055,0.8055,0,0.7839,0.7843,0.7866,0.7873,0.7883,0.7894,0.7902,0.7922,0.793,0.795,0.7954,0.7969,0.7982,0.8003,0.8021,0.8036,0.8043,0.8038,0.8046,0.8041,0.8044,0.8044,0.8045,0.8037,0.8036,0.8036,0.8036,0,0.7823,0.7832,0.7843,0.7858,0.7868,0.788,0.7894,0.7899,0.7921,0.793,0.7944,0.7953,0.7973,0.7988,0.8006,0.8018,0.8031,0.8033,0.8034,0.8029,0.8023,0.8028,0.8044,0.8034,0.8034,0.8034,0.8034,0.8034,0.781,0.7815,0.7832,0.7845,0.7857,0.7869,0.7876,0.789,0.7902,0.792,0.793,0.7944,0.7961,0.7986,0.7998,0.8009,0.8014,0.8015,0.8016,0.8016,0.8014,0.802,0.8012,0.8012,0.8012,0.8012,0.8013,0,0.7796,0.7808,0.7819,0.7838,0.7848,0.7858,0.7874,0.7881,0.7893,0.7908,0.792,0.7937,0.7951,0.797,0.7986,0.7992,0.7998,0.7995,0.7996,0.7999,0.8008,0.8007,0.799,0.799,0.799,0.799,0.799,0.799,0.779,0.78,0.781,0.7826,0.7838,0.7851,0.786,0.7871,0.7883,0.7901,0.7912,0.7924,0.7941,0.7959,0.7973,0.7978,0.7984,0.7979,0.7987,0.7996,0.7998,0.8,0.7998,0.798,0.798,0.7976,0.7976,0.7976]},{"header":{"parameterUnit":"m.s-1","parameterCategory":1,"la1":30.2991,"la2":30.254,"lo1":-89.0895,"lo2":-89.0444,"dy":0.0017,"dx":0.0017,"nx":28,"ny":28,"refTime":"2024-09-29T21:00:00:Z","depth":0,"parameterNumber":3,"parameterNumberName":"V-component_of_WINDS"},"data":[0,0,0,0,0,0,0,0,0,0,0,0,0,0,0,0,0,0,0,0,0,0,0,0,0,0,0,0,0,0,0,0,0,0,0,0,0,0,0,0,0,0,0,0,0,0,0,0,0,0,0,0,0,0,0,0,0,0,1.283,1.283,0,1.286,1.286,1.2861,1.2902,1.2902,1.2903,1.2904,1.2933,1.2933,1.2934,0,0,0,0,0,0,0,0,0,0,0,0,0,1.2808,1.2808,1.283,1.283,1.2831,1.286,1.286,1.2861,1.2902,1.2902,1.2903,1.2904,1.2933,1.2933,1.2934,0,0,0,0,0,0,0,0,0,0,0,0,0,1.2825,1.2808,1.283,1.2855,1.2857,1.286,1.286,1.2861,1.2901,1.2902,1.2904,1.2905,1.2933,1.2933,1.2934,1.2914,0,0,1.2934,1.2934,0,0,0,0,0,0,0,0,1.2824,1.2826,1.2851,1.2853,1.2856,1.2878,1.2863,1.2879,1.2901,1.2885,1.2904,1.2905,1.2914,1.2916,1.2919,1.2915,1.2916,1.2934,1.2934,1.2934,1.2934,0,0,0,0,0,0,0,1.2823,1.2825,1.2842,1.2851,1.2854,1.2864,1.2868,1.2866,1.2893,1.2886,1.2889,1.2892,1.2916,1.2919,1.292,1.2917,1.2934,1.2934,1.2934,1.2935,1.2898,1.2897,0,0,0,0,0,0,1.2818,1.2824,1.2841,1.2843,1.2842,1.2864,1.2868,1.287,1.2893,1.2898,1.2891,1.2894,1.2918,1.292,1.2921,1.2899,1.2934,1.2935,1.2935,1.2899,1.2898,1.2896,0,0,0,0,0,0,1.2817,1.2819,1.284,1.2834,1.2837,1.2863,1.2865,1.287,1.2873,1.2897,1.2902,1.289,1.2919,1.2921,1.2915,1.2901,1.2935,1.2935,1.29,1.2899,1.2897,1.2855,0,0,0,0,0,0,1.2817,1.2819,1.2812,1.2834,1.2838,1.2833,1.2864,1.287,1.2874,1.2877,1.2897,1.2901,1.292,1.2915,1.2916,1.2902,1.2935,1.2902,1.29,1.2898,1.2858,1.2852,1.2847,0,0,0,0,0,1.2816,1.2799,1.2811,1.2813,1.2829,1.2832,1.2835,1.2857,1.2872,1.2865,1.2881,1.29,1.2903,1.2914,1.2915,1.2901,1.2903,1.29,1.2898,1.286,1.2853,1.2847,0,0,0,0,0,0,1.2774,1.2802,1.2816,1.2806,1.2816,1.2839,1.2831,1.2849,1.2855,1.2858,1.2886,1.289,1.288,1.289,1.2903,1.2883,1.2906,1.2903,1.2876,1.287,1.2865,1.2862,1.2935,0,0,0,0,0,1.2764,1.2764,1.2788,1.2777,1.2781,1.2805,1.2807,1.2824,1.2836,1.284,1.2855,1.2866,1.2869,1.287,1.2875,1.286,1.2864,1.2851,1.2845,1.2841,1.2838,1.2831,1.2825,1.2888,1.2888,1.2888,0,0,1.2742,1.2757,1.2756,1.2769,1.2779,1.2778,1.2809,1.2807,1.2807,1.284,1.2835,1.2847,1.286,1.285,1.2846,1.2858,1.2822,1.2838,1.2834,1.2834,1.2827,1.2821,1.2816,1.2887,1.2887,1.2887,0,0,1.2702,1.2714,1.2705,1.2715,1.273,1.2746,1.2744,1.2765,1.2773,1.2769,1.2794,1.2794,1.2799,1.2808,1.2813,1.2776,1.2794,1.2777,1.2749,1.2741,1.2736,1.2732,1.2718,1.2713,1.2774,1.2774,1.2774,0,1.2673,1.2673,1.2698,1.2695,1.27,1.2731,1.2722,1.273,1.2745,1.2748,1.2761,1.2767,1.2779,1.277,1.2762,1.2765,1.2763,1.2774,1.2735,1.2731,1.2727,1.2714,1.2709,1.2772,1.2772,1.2772,1.2773,0,1.2636,1.2636,1.2628,1.2642,1.2646,1.264,1.2663,1.2664,1.268,1.2695,1.269,1.2705,1.2712,1.2712,1.2728,1.2706,1.2712,1.273,1.2753,1.2718,1.2706,1.2702,1.2769,1.2769,1.277,1.2771,0,0,1.257,1.2599,1.2595,1.2602,1.2621,1.2621,1.2617,1.2624,1.2624,1.2634,1.263,1.2633,1.265,1.2655,1.2672,1.2666,1.2635,1.2684,1.2685,1.2673,1.2611,1.2596,1.259,1.2648,1.2647,1.2646,1.2609,0,1.2533,1.2526,1.2549,1.2536,1.2536,1.2566,1.2561,1.2572,1.2586,1.2588,1.2603,1.2604,1.2626,1.263,1.2624,1.264,1.2622,1.2643,1.2643,1.2643,1.2638,1.2584,1.2569,1.2534,1.2605,1.2604,1.2603,0,1.2489,1.2496,1.2484,1.2503,1.2504,1.25,1.2508,1.251,1.2523,1.2533,1.254,1.256,1.2556,1.2579,1.2574,1.2587,1.2589,1.2596,1.2596,1.2595,1.262,1.2582,1.2523,1.2517,1.2597,1.2597,1.2598,0,1.244,1.2447,1.2441,1.2446,1.2469,1.2465,1.2474,1.2489,1.2492,1.2499,1.2502,1.2509,1.2512,1.2517,1.2538,1.2553,1.253,1.2555,1.2538,1.2537,1.2531,1.253,1.247,1.2534,1.2534,1.2534,1.2534,0,1.2395,1.2386,1.2419,1.2415,1.2405,1.2431,1.2421,1.2434,1.2446,1.2444,1.2471,1.2468,1.2497,1.2498,1.2514,1.2507,1.2509,1.2517,1.2521,1.2514,1.2512,1.2514,1.2517,1.2532,1.2533,1.2533,1.2533,0,1.2339,1.2361,1.2355,1.2378,1.2383,1.2375,1.2394,1.2391,1.2407,1.2404,1.2405,1.2429,1.2431,1.2453,1.2461,1.2472,1.2458,1.2467,1.2453,1.2456,1.2437,1.2438,1.2375,1.2367,1.2436,1.2436,1.2435,0,1.2309,1.2302,1.2324,1.2325,1.2333,1.2335,1.2338,1.2363,1.2366,1.238,1.2375,1.238,1.2385,1.2387,1.2405,1.2411,1.242,1.2397,1.2421,1.2414,1.2418,1.2418,1.2417,1.2392,1.2391,1.239,1.239,0,1.2252,1.2263,1.2267,1.2275,1.2278,1.2285,1.2294,1.2293,1.2321,1.2322,1.2325,1.2329,1.2337,1.2341,1.235,1.2359,1.2379,1.2382,1.2379,1.237,1.2362,1.2365,1.2438,1.2383,1.2384,1.2385,1.2385,1.2385,1.2207,1.2202,1.2217,1.2221,1.223,1.2238,1.2235,1.2251,1.2254,1.2262,1.2277,1.2277,1.2291,1.2305,1.2313,1.2313,1.2325,1.232,1.2318,1.2316,1.2312,1.2363,1.2315,1.2315,1.2315,1.2316,1.2316,0,1.2151,1.2162,1.2165,1.2176,1.2179,1.2198,1.2209,1.2209,1.221,1.2221,1.2225,1.2228,1.2232,1.2251,1.2257,1.2253,1.2263,1.2254,1.2254,1.2256,1.2301,1.2304,1.2246,1.2246,1.2246,1.2247,1.2247,1.2247,1.2122,1.2115,1.2128,1.2126,1.2137,1.2138,1.2142,1.2149,1.2158,1.216,1.2164,1.2176,1.219,1.2197,1.2202,1.2207,1.2208,1.2196,1.2204,1.2246,1.2252,1.2259,1.2261,1.2196,1.2196,1.2158,1.2158,1.2157]}]]